OESK

Details ICAO OESK (AJF)
Name AL JOUF
Region Saudi Arabia
Timezone Asia/Riyadh (UTC+3.0)
Plans Departing 13
Arriving 13
Stats Elevation 2,261 ft / 689 m (AMSL)
Location 29.785132° 40.100004°
Runways 1
Magnetic Variation 4.343° E
Sunrise 2018-05-25 02:23:12 UTC / 2018-05-25 05:23:12 Local
Sunset 2018-05-25 16:12:43 UTC / 2018-05-25 19:12:43 Local
Advertisement - Login to hide

Runways

ID Width Length Bearing (true) Bearing (mag) Surface Threshold Offset Overrun Length
10 147 ft / 45 m 11,996 ft / 3,656 m 99.80° 95.46° Asphalt 0 ft / 0 m 975 ft / 297 m
28 147 ft / 45 m 11,996 ft / 3,656 m 279.81° 275.47° Asphalt 0 ft / 0 m 975 ft / 297 m

Approach Navaids

Runway Type Ident Frequency Range Bearing (true) Bearing (mag) Slope Elevation
28 Localiser IAJF 109.90 MHz 18 nm / 33 km 279.77° 275.42° - 2,229 ft / 679 m (AMSL)
28 Glidescope IAJF 109.90 MHz 10 nm / 19 km 279.80° 275.46° 3.00° 2,229 ft / 679 m (AMSL)
28 DME IAJF 109.90 MHz 18 nm / 33 km - - - 2,229 ft / 679 m (AMSL)

Map

Weather


0- 5 10 15 20 25 30 35+ Temperature / ° C

Clouds and Precipitation
Forecast for 2018-05-24 18:00 UTC. Updated 5 hours ago

Ground ~20,000 ft ~40,000 ft Winds

METAR

OESK 242100Z 30012KT CAVOK 29/02 Q1012

TAF

TAF OESK 241100Z 2412/2518 30006G16KT 8000 FEW040 SCT100 TEMPO 2412/2420 4000 DU BLDU

Frequencies

Unicom 122.80 MHz CTAF
Tower 118.90 MHz TWR
Ground 121.90 MHz GND
Warning: Do not use this data for real-world aviation or navigation. No guarantee of current accuracy is given.